Location: Eyeline Observatory
(43.2182°N, 78.8632°W)
Time: 07:09:54
(UTC-04:00)

Envisat - Pass Details

Date: 07 October 2017
Orbit: 764 x 766 km, 98.2° (Epoch: 19 October)

Event Time Altitude Azimuth Distance (km) Brightness Sun altitude
Exits shadow 21:18:24 62° 230° (SW) 859 3.2 -28.3°
Maximum altitude 21:18:49 65° 258° (WSW) 840 3.2 -28.4°
Drops below altitude 10° 21:23:53 10° 341° (NNW) 2,311 5.9 -29.2°
Sets 21:26:13 0° 344° (NNW) 3,241 6.7 -29.6°
